Flag for U.S.A. Weather past 2 weeks in Avalon (Santa Catalina Island), California, U.S.A.

Now
72 °F

Clear.


Feels Like: 76 °F
Forecast: 72 / 82 °F
Wind: 12 mph from Northwest

Location: Catalina Airport

Current Time: Aug 30, 2015 at 5:38:24 AM

Latest Report: Aug 30, 2015 at 4:51 AM


Visibility: 10 mi

Pressure: 29.84 "Hg

Humidity: 57%

Dew point: 56 °F

Location of Avalon (Santa Catalina Island)Location

Historic Weather in Avalon (Santa Catalina Island) — Graph

°F

Avalon (Santa Catalina Island) temperature yesterday

Maximum temperature yesterday: 88 °F (at 1:51 PM)
Minimum temperature yesterday: 75 °F (at 6:51 PM)
Average temperature yesterday: 81 °F

Past Weeks' High & Low Weather Summary

 TemperatureHumidityPressure
High97 °F (Aug 16, 1:51 PM)100% (Aug 17, 10:51 PM)29.98 "Hg (Aug 17, 10:51 PM)
Low59 °F (Aug 19, 1:01 AM)5% (Aug 16, 7:51 AM)29.78 "Hg (Aug 16, 6:51 PM)
Average74 °F56%29.89 "Hg
* Reported Aug 15 3:51 AM — Aug 30 3:51 AM, Avalon (Santa Catalina Island), Weather by CustomWeather, © 2015

Note: Actual official high and low records may vary slightly from our data, if they occured in-between our weather recording intervals... More about our weather records

Advertising

Avalon (Santa Catalina Island) weather history for previous 24 hours

 ConditionsComfort  
Time TempWeatherWind HumidityBarometerVisibility
3:51 AM
Sun, Aug 30
71 °FClear.8 mph61%29.84 "Hg10 mi
2:51 AM73 °FClear.9 mph55%29.83 "Hg10 mi
1:51 AM75 °FMild.7 mph50%29.83 "Hg10 mi
12:51 AM76 °FClear.7 mph47%29.84 "Hg10 mi
11:51 PM
Sat, Aug 29
78 °FClear.15 mph43%29.84 "Hg10 mi
10:51 PM77 °FClear.13 mph44%29.83 "Hg10 mi
9:51 PM80 °FClear.8 mph39%29.84 "Hg10 mi
8:51 PM79 °FClear.9 mph45%29.83 "Hg10 mi
7:51 PM78 °FSunny.18 mph45%29.83 "Hg10 mi
6:51 PM75 °FSunny.14 mph50%29.83 "Hg10 mi
5:51 PM79 °FSunny.16 mph45%29.83 "Hg10 mi
4:51 PM82 °FSunny.12 mph38%29.84 "Hg10 mi
3:51 PM86 °FSunny.10 mph31%29.85 "Hg10 mi
2:51 PM85 °FSunny.9 mph35%29.86 "Hg10 mi
1:51 PM88 °FSunny.7 mph34%29.87 "Hg10 mi
12:51 PM86 °FSunny.8 mph39%29.87 "Hg10 mi
11:51 AM86 °FSunny.5 mph40%29.88 "Hg10 mi
10:51 AM86 °FSunny.7 mph35%29.88 "Hg10 mi
9:51 AM84 °FSunny.8 mph31%29.88 "Hg10 mi
8:51 AM82 °FSunny.9 mph31%29.87 "Hg10 mi
7:51 AM80 °FSunny.8 mph32%29.85 "Hg10 mi
6:51 AM78 °FClear.9 mph36%29.85 "Hg10 mi
5:51 AM78 °FClear.9 mph35%29.83 "Hg10 mi
Weather by CustomWeather, © 2015

See weather overviewHow to use our weather pages